Flag for Mozambique Weather past 2 weeks in Maputo, Mozambique

Now
72 °F

Rain. Mostly cloudy.


Feels Like: 65 °F
Forecast: 70 / 82 °F
Wind: 14 mph from South

Location: Maputo / Mavalane

Current Time: Dec 29, 2014 at 3:08:09 AM

Latest Report: Dec 29, 2014 at 2:00 AM


Visibility: 5 mi

Pressure: 29.83 "Hg

Humidity: 100%

Dew point: 72 °F

Location of MaputoLocation

Historic Weather in Maputo — Graph

°F

Maputo temperature yesterday

Maximum temperature yesterday: 88 °F (at 1:00 PM)
Minimum temperature yesterday: 72 °F (at 7:00 PM)
Average temperature yesterday: 78 °F

Past Weeks' High & Low Weather Summary

 TemperatureHumidityPressure
High100 °F (Dec 25, 10:00 PM)100% (Dec 15, 10:00 PM)30.21 "Hg (Dec 15, 10:00 PM)
Low68 °F (Dec 14, 2:00 AM)42% (Dec 24, 11:00 AM)29.68 "Hg (Dec 25, 4:00 PM)
Average79 °F79%29.89 "Hg
* Reported Midnight between Dec 13 and Dec 14 — Midnight between Dec 28 and Dec 29, Maputo, Weather by CustomWeather, © 2014

Note: Actual official high and low records may vary slightly from our data, if they occured in-between our weather recording intervals... More about our weather records

Advertising

Maputo weather history for previous 24 hours

 ConditionsComfort  
Time TempWeatherWind HumidityBarometerVisibility
12:00 AM
Dec 29
72 °FRain. Mostly cloudy.15 mph100%29.83 "Hg4 mi
11:00 PM
Dec 28
72 °FRain. Mostly cloudy.16 mph100%29.86 "Hg3 mi
10:00 PM72 °FThunderstorms. Mostly cloudy.16 mph100%29.83 "Hg2 mi
8:00 PM73 °FThunderstorms. Mostly cloudy.10 mph100%29.80 "Hg2 mi
7:00 PM72 °FThunderstorms. Mostly cloudy.10 mph100%29.80 "Hg1 mi
6:00 PM79 °FThunderstorms. Mostly cloudy.14 mph100%29.74 "Hg3 mi
4:00 PM81 °FThundershowers. Broken clouds.12 mph100%29.74 "HgN/A
3:00 PM81 °FThunderstorms. Broken clouds.12 mph100%29.74 "HgN/A
2:00 PM81 °FThunderstorms. Broken clouds.10 mph94%29.74 "Hg2 mi
1:00 PM88 °FBroken clouds.8 mph79%29.74 "HgN/A
12:00 PM86 °FBroken clouds.9 mph75%29.77 "HgN/A
11:00 AM82 °FBroken clouds.6 mph84%29.77 "HgN/A
10:00 AM81 °FPartly sunny.6 mph89%29.80 "HgN/A
9:00 AM77 °FPartly sunny.6 mph100%29.80 "Hg6 mi
8:00 AM77 °FDrizzle. Broken clouds.5 mph100%29.83 "Hg2 mi
7:00 AM75 °FRain. Broken clouds.3 mph100%29.83 "Hg2 mi
6:00 AM75 °FRain. More clouds than sun.3 mph100%29.83 "Hg2 mi
5:00 AM77 °FWarm.2 mph94%29.80 "HgN/A
Weather by CustomWeather, © 2014

See weather overviewHow to use our weather pages